ATLAS 5 CENTAUR DEB, 47343

Orbit data source: Space-Track

ATLAS 5 CENTAUR DEB, 47343 is space debris in HEO originally from a launch on Wed, 17 Oct 2018 UTC launched from the Air Force Eastern Test Range (AFETR). Debris objects in space refer to the collection of defunct objects orbiting the Earth. Examples of debris include non-operational satellites, rocket bodies, and fragments generated from explosions, collisions, or faulty payload assembly.

Loading next visibility...
Identifier
47343, 2018-079EQ
Orbit
HEO
Country
Flag of USUS
Related business
Flag of USUnited Launch Alliance/Lockheed Martin (US)
Manufacturer
ULA Decatur
Mission
Spacecraft
Bus & Motor
Unknown
Mass
Unknown
Launch date (UTC)
2018-10-17 (8 years ago)
Launch vehicle
Unknown
Launch site
Air Force Eastern Test Range (AFETR)
Object type
Payload
Rocket body
Debris
Shape & HBR
Unknown shape, 1.1 m
Radar Cross Section
Medium (>0.1 m² and <1 m²)

Expand to show TLE details & history
Last TLE update: 1 month ago

TLE from 1 month ago
0 ATLAS 5 CENTAUR DEB
1 47343U 18079EQ  26130.46863796 -.00000097  00000-0  00000-0 0  9994
2 47343  12.6879  49.8387 4092391 323.0382  14.7910  1.96310579 35016
Epoch: 2026-05-10T11:14Z
TLE epoch observation values (Epoch: 2026-05-10T11:14:50.319Z)
Latitude
-0.00004°
Longitude
12.82003°
Altitude
10,510.084 km
Speed
5.693 km/s
True Right ascension
03h 19m 12s
True Declination
0° 00' 00"
Sunlit
Object was in daylight at epoch
Visualization orbit readout
Latitude
Unknown
Longitude
Unknown
Altitude
Unknown
Speed
Unknown
Apparent Right ascension
Unknown
Apparent Declination
Unknown
Sunlit
N/A
Visualization observer readout
Local Sidereal Time
21:41:37
Azimuth
Unknown
Elevation
Unknown
Doppler factor
Unknown
Orbital elements
Apogee altitude
31,593.253 km
Perigee altitude
9,539.682 km
Semi-major axis
26,944.605 km
Eccentricity
0.40924
Inclination
12.6879°
RAAN
49.8387°
Arg. of periapsis
323.0382°
True anomaly
37.1108°
Mean anomaly
14.791°
Eccentric anomaly
24.52325°
Mean motion
0.49072 °/min
Orbital period
733.61 mins
BSTAR
0
Loading maneuver chart data...
Computing Atmospheric mass density...

Documentation

Showing up to 5 results
|